When you browse on this site, cookies collect data to enhance your experience and personalize the content and advertising you see.
Visit our Privacy Policy to learn more. By continuing to use the site, you agree to this use of cookies and data.
EN

Hourly Weather Mayrhofen

Today, 24 September, Thursday

Time Temperature Precipitation Wind Pressure Humidity
00:00 +7°C° 0 mm 1 mps 614 mmHg 95%
01:00 +8°C° 0 mm 1 mps 614 mmHg 96%
02:00 +7°C° 0 mm 1 mps 614 mmHg 95%
03:00 +7°C° 0 mm 1 mps 614 mmHg 95%
04:00 +7°C° 0 mm 1 mps 614 mmHg 94%
05:00 +8°C° 0 mm 1 mps 614 mmHg 93%
06:00 +8°C° 0 mm 1 mps 614 mmHg 92%
07:00 +9°C° 0 mm 1 mps 615 mmHg 89%
08:00 +10°C° 0 mm 1 mps 615 mmHg 85%
09:00 +11°C° 0 mm 1 mps 616 mmHg 81%
10:00 +13°C° 0 mm 1 mps 616 mmHg 77%
11:00 +13°C° 0.3 mm 1 mps 616 mmHg 76%
12:00 +14°C° 0.3 mm 2 mps 616 mmHg 75%
13:00 +14°C° 0 mm 2 mps 616 mmHg 71%
14:00 +14°C° 0.5 mm 2 mps 616 mmHg 74%
15:00 +14°C° 0.5 mm 2 mps 615 mmHg 77%
16:00 +13°C° 0.5 mm 2 mps 614 mmHg 80%
17:00 +12°C° 0.3 mm 2 mps 614 mmHg 84%
18:00 +10°C° 0.3 mm 2 mps 613 mmHg 88%
19:00 +9°C° 0.3 mm 3 mps 612 mmHg 92%
20:00 +8°C° 0.5 mm 3 mps 612 mmHg 93%
21:00 +8°C° 0.5 mm 2 mps 611 mmHg 94%
22:00 +8°C° 0.5 mm 2 mps 611 mmHg 94%
23:00 +8°C° 1.1 mm 2 mps 610 mmHg 95%

Tomorrow, 25 September, Friday

Time Temperature Precipitation Wind Pressure Humidity
00:00 +8°C° 1.1 mm 2 mps 610 mmHg 96%
01:00 +8°C° 1.1 mm 1 mps 609 mmHg 97%
02:00 +8°C° 4.1 mm 1 mps 609 mmHg 97%
03:00 +6°C° 4.1 mm 2 mps 608 mmHg 97%
04:00 +5°C° 4.1 mm 2 mps 608 mmHg 98%
05:00 +5°C° 3.6 mm 2 mps 607 mmHg 98%
06:00 +5°C° 3.6 mm 1 mps 607 mmHg 98%
07:00 +4°C° 3.6 mm 1 mps 606 mmHg 98%
08:00 +3°C° 1.5 mm 2 mps 606 mmHg 98%
09:00 +3°C° 1.5 mm 2 mps 606 mmHg 98%
10:00 +3°C° 1.5 mm 2 mps 606 mmHg 98%
11:00 +1°C° 3.3 mm 3 mps 606 mmHg 98%
12:00 0°C° 3.3 mm 3 mps 605 mmHg 98%
13:00 0°C° 3.3 mm 3 mps 604 mmHg 97%
14:00 -1°C° 2.6 mm 3 mps 604 mmHg 97%
15:00 -2°C° 2.6 mm 3 mps 604 mmHg 97%
16:00 -2°C° 2.6 mm 3 mps 603 mmHg 97%
17:00 -2°C° 1.7 mm 3 mps 603 mmHg 97%
18:00 -3°C° 1.7 mm 2 mps 603 mmHg 97%
19:00 -3°C° 1.7 mm 2 mps 603 mmHg 97%
20:00 -3°C° 0.4 mm 2 mps 603 mmHg 97%
21:00 -3°C° 0.4 mm 2 mps 603 mmHg 97%
22:00 -3°C° 0.4 mm 2 mps 603 mmHg 97%
23:00 -3°C° 1 mm 2 mps 603 mmHg 97%

Day after tomorrow, 26 September, Saturday

Time Temperature Precipitation Wind Pressure Humidity
00:00 -3°C° 1 mm 2 mps 603 mmHg 97%
01:00 -3°C° 1 mm 2 mps 603 mmHg 97%
02:00 -3°C° 0.9 mm 2 mps 603 mmHg 97%
03:00 -3°C° 0.9 mm 2 mps 602 mmHg 97%
04:00 -4°C° 0.9 mm 3 mps 602 mmHg 97%
05:00 -3°C° 0.5 mm 2 mps 602 mmHg 97%
06:00 -3°C° 0.5 mm 2 mps 602 mmHg 97%
07:00 -3°C° 0.5 mm 2 mps 602 mmHg 96%
08:00 -2°C° 0.4 mm 2 mps 603 mmHg 95%
09:00 -2°C° 0.4 mm 2 mps 604 mmHg 93%
10:00 -1°C° 0.4 mm 2 mps 604 mmHg 92%
11:00 -1°C° 0.1 mm 2 mps 604 mmHg 91%
12:00 -1°C° 0.1 mm 2 mps 604 mmHg 91%
13:00 +1°C° 0.1 mm 2 mps 604 mmHg 91%
14:00 -1°C° 0.2 mm 2 mps 604 mmHg 90%
15:00 +1°C° 0.2 mm 1 mps 605 mmHg 90%
16:00 +1°C° 0.2 mm 1 mps 605 mmHg 90%
17:00 0°C° 0.1 mm 1 mps 605 mmHg 91%
18:00 -1°C° 0.1 mm 1 mps 605 mmHg 92%
19:00 -2°C° 0.1 mm 1 mps 605 mmHg 92%
20:00 -2°C° 0 mm 1 mps 605 mmHg 91%
21:00 -2°C° 0 mm 1 mps 605 mmHg 90%
22:00 -2°C° 0 mm 1 mps 605 mmHg 88%
23:00 -2°C° 0 mm 1 mps 605 mmHg 87%

27 September, Sunday

Time Temperature Precipitation Wind Pressure Humidity
00:00 -2°C° 0 mm 1 mps 605 mmHg 86%
01:00 -2°C° 0 mm 1 mps 605 mmHg 85%
02:00 -2°C° 0 mm 1 mps 605 mmHg 84%
03:00 -2°C° 0 mm 1 mps 605 mmHg 83%
04:00 -2°C° 0 mm 1 mps 605 mmHg 82%
05:00 -4°C° 0 mm 2 mps 605 mmHg 82%
06:00 -4°C° 0 mm 2 mps 605 mmHg 83%
07:00 -4°C° 0 mm 2 mps 605 mmHg 83%
08:00 -3°C° 0 mm 2 mps 606 mmHg 85%
09:00 -1°C° 0 mm 2 mps 607 mmHg 86%
10:00 +1°C° 0 mm 2 mps 607 mmHg 88%
11:00 +2°C° 0 mm 2 mps 607 mmHg 88%
12:00 +2°C° 0 mm 2 mps 608 mmHg 89%
13:00 +3°C° 0 mm 2 mps 608 mmHg 89%
14:00 +3°C° 0.1 mm 2 mps 608 mmHg 89%
15:00 +4°C° 0.1 mm 1 mps 608 mmHg 89%
16:00 +4°C° 0.1 mm 1 mps 608 mmHg 89%
17:00 +2°C° 0 mm 1 mps 608 mmHg 90%
18:00 -1°C° 0 mm 2 mps 608 mmHg 90%
19:00 -3°C° 0 mm 2 mps 608 mmHg 90%
20:00 -3°C° 0 mm 2 mps 608 mmHg 91%
21:00 -3°C° 0 mm 2 mps 609 mmHg 92%
22:00 -3°C° 0 mm 2 mps 609 mmHg 93%
23:00 -3°C° 0 mm 2 mps 609 mmHg 93%

28 September, Monday

Time Temperature Precipitation Wind Pressure Humidity
00:00 -3°C° 0 mm 2 mps 609 mmHg 93%
01:00 -3°C° 0 mm 2 mps 609 mmHg 94%
02:00 -3°C° 0 mm 2 mps 609 mmHg 92%
03:00 -2°C° 0 mm 1 mps 609 mmHg 90%
04:00 -2°C° 0 mm 1 mps 609 mmHg 88%
05:00 -2°C° 0 mm 1 mps 610 mmHg 85%
06:00 -1°C° 0 mm 1 mps 610 mmHg 83%
07:00 -1°C° 0 mm 1 mps 610 mmHg 80%
08:00 +1°C° 0 mm 1 mps 611 mmHg 82%
09:00 +2°C° 0 mm 1 mps 611 mmHg 85%
10:00 +3°C° 0 mm 0 mps 612 mmHg 87%
11:00 +3°C° 0 mm 0 mps 612 mmHg 87%
12:00 +4°C° 0 mm 0 mps 612 mmHg 88%
13:00 +5°C° 0 mm 0 mps 613 mmHg 88%
14:00 +5°C° 0.2 mm 1 mps 613 mmHg 90%
15:00 +5°C° 0.2 mm 1 mps 612 mmHg 92%
16:00 +4°C° 0.2 mm 1 mps 612 mmHg 94%
17:00 +4°C° 0.7 mm 1 mps 613 mmHg 95%
18:00 +2°C° 0.7 mm 2 mps 613 mmHg 96%
19:00 +2°C° 0.7 mm 2 mps 613 mmHg 97%
20:00 +2°C° 0.5 mm 2 mps 614 mmHg 98%
21:00 +2°C° 0.5 mm 2 mps 614 mmHg 98%
22:00 +4°C° 0.5 mm 1 mps 614 mmHg 98%
23:00 +4°C° 0.3 mm 1 mps 615 mmHg 98%

29 September, Tuesday

Time Temperature Precipitation Wind Pressure Humidity
00:00 +3°C° 0.3 mm 2 mps 615 mmHg 98%
01:00 +3°C° 0.3 mm 2 mps 615 mmHg 98%
02:00 +3°C° 0.3 mm 2 mps 615 mmHg 98%
03:00 +4°C° 0.3 mm 1 mps 615 mmHg 97%
04:00 +4°C° 0.3 mm 1 mps 615 mmHg 97%
05:00 +4°C° 0.5 mm 1 mps 616 mmHg 98%
06:00 +5°C° 0.5 mm 1 mps 616 mmHg 98%
07:00 +5°C° 0.5 mm 1 mps 616 mmHg 98%
08:00 +6°C° 0.1 mm 1 mps 616 mmHg 97%
09:00 +6°C° 0.1 mm 1 mps 617 mmHg 97%
10:00 +7°C° 0.1 mm 1 mps 617 mmHg 96%
11:00 +8°C° 0 mm 1 mps 617 mmHg 95%
12:00 +8°C° 0 mm 1 mps 618 mmHg 94%
13:00 +9°C° 0 mm 1 mps 618 mmHg 93%
14:00 +8°C° 0.1 mm 1 mps 618 mmHg 94%
15:00 +8°C° 0.1 mm 1 mps 618 mmHg 95%
16:00 +8°C° 0.1 mm 1 mps 617 mmHg 95%
17:00 +7°C° 0 mm 1 mps 617 mmHg 96%
18:00 +6°C° 0 mm 1 mps 617 mmHg 97%
19:00 +5°C° 0 mm 1 mps 617 mmHg 97%
20:00 +5°C° 0 mm 1 mps 617 mmHg 97%
21:00 +5°C° 0 mm 1 mps 617 mmHg 97%
22:00 +4°C° 0 mm 0 mps 617 mmHg 97%
23:00 +4°C° 0 mm 0 mps 616 mmHg 97%
Show more